Weather History for Hulett, WY

Change the Weather History Date:

Wednesday, August 28, 2013

  Actual Average (KEFC) Record (KEFC)
Temperature  
Mean Temperature 76 °F -  
Max Temperature 93 °F 87 °F 101 °F (1959)
Min Temperature 60 °F 53 °F 36 °F (1988)
Cooling Degree Days 12    
Growing Degree Days 26 (Base 50)    
Moisture  
Dew Point 57 °F    
Average Humidity 53    
Maximum Humidity 94    
Minimum Humidity 24    
Precipitation  
Precipitation 0.00 in - - ()
Sea Level Pressure  
Sea Level Pressure 30.04 in    
Wind  
Wind Speed 6 mph (South)    
Max Wind Speed 18 mph    
Max Gust Speed 29 mph    
Visibility 10 miles    
Events      
Averages and records for this station are not official NWS values.
T = Trace of Precipitation, MM = Missing Value Source: NWS Daily Summary

Daily Weather History Graph

Daily Weather History Graph

Search for Another Location

Airport:

Trip Planner

Search our weather history database for the weather conditions in past years. The results will help you decide how hot, cold, wet, or windy it might be!

Date:

Astronomy

Aug. 28, 2013 Rise Set
Actual Time 6:16 AM MDT 7:41 PM MDT
Civil Twilight 5:45 AM MDT 8:11 PM MDT
Nautical Twilight 5:09 AM MDT 8:48 PM MDT
Astronomical Twilight 4:29 AM MDT 9:27 PM MDT
Moon No Moon Rise 2:28 PM MDT (8/28)
Length of Visible Light 14h 25m
Length of Day
13h 25m
Waning Gibbous, 47% of the Moon is Illuminated
Aug 28
Waning Gibbous
Sep 5
New
Sep 12
First Quarter
Sep 19
Full
Sep 26
Last Quarter

Hourly Weather History & Observations

Time (MDT) Temp. Heat Index Dew Point Humidity Pressure Visibility Wind Dir Wind Speed Gust Speed Precip Events Conditions
12:15 AM 69.8 °F - 60.8 °F 73% 30.07 in 10.0 mi North - - N/A   Clear
12:35 AM 69.8 °F - 60.8 °F 73% 30.08 in 10.0 mi Calm Calm - N/A   Clear
12:55 AM 69.8 °F - 60.8 °F 73% 30.08 in 10.0 mi North - - N/A   Clear
1:15 AM 68.0 °F - 60.8 °F 78% 30.08 in 10.0 mi North - - N/A   Clear
1:35 AM 68.0 °F - 60.8 °F 78% 30.08 in 10.0 mi North - - N/A   Clear
1:55 AM 68.0 °F - 60.8 °F 78% 30.07 in 10.0 mi Calm Calm - N/A   Clear
2:15 AM 69.8 °F - 60.8 °F 73% 30.07 in 10.0 mi NNE 5.8 mph - N/A   Clear
2:35 AM 68.0 °F - 60.8 °F 78% 30.07 in 10.0 mi NNE 3.5 mph - N/A   Clear
2:55 AM 66.2 °F - 60.8 °F 83% 30.07 in 10.0 mi Calm Calm - N/A   Clear
3:15 AM - - - N/A% 30.07 in 10.0 mi North - - N/A   Clear
3:35 AM - - - N/A% 30.06 in 10.0 mi North - - N/A   Clear
3:55 AM - - - N/A% 30.06 in 10.0 mi North - - N/A   Clear
4:15 AM - - - N/A% 30.06 in 10.0 mi Calm Calm - N/A   Clear
4:35 AM - - - N/A% 30.05 in 10.0 mi Calm Calm - N/A   Clear
4:55 AM 64.4 °F - 60.8 °F 88% 30.06 in 10.0 mi North - - N/A   Clear
5:15 AM 62.6 °F - 60.8 °F 94% 30.05 in 10.0 mi North - - N/A   Clear
5:35 AM 64.4 °F - 60.8 °F 88% 30.05 in 10.0 mi SW 3.5 mph - N/A   Clear
5:55 AM 62.6 °F - 59.0 °F 88% 30.05 in 10.0 mi Calm Calm - N/A   Clear
6:15 AM 62.6 °F - 60.8 °F 94% 30.06 in 10.0 mi North - - N/A   Clear
6:35 AM 60.8 °F - 59.0 °F 94% 30.06 in 10.0 mi Calm Calm - N/A   Clear
6:55 AM 62.6 °F - 59.0 °F 88% 30.07 in 10.0 mi North - - N/A   Clear
7:15 AM 62.6 °F - 60.8 °F 94% 30.08 in 10.0 mi North - - N/A   Clear
7:35 AM 64.4 °F - 60.8 °F 88% 30.08 in 10.0 mi North - - N/A   Clear
7:55 AM 66.2 °F - 62.6 °F 88% 30.08 in 10.0 mi Calm Calm - N/A   Clear
8:15 AM 68.0 °F - 62.6 °F 83% 30.08 in 10.0 mi North - - N/A   Clear
8:35 AM 71.6 °F - 60.8 °F 69% 30.08 in 10.0 mi Calm Calm - N/A   Clear
8:55 AM 71.6 °F - 62.6 °F 73% 30.08 in 10.0 mi North 3.5 mph - N/A   Clear
9:15 AM 71.6 °F - 62.6 °F 73% 30.08 in 10.0 mi North - - N/A   Clear
9:35 AM 73.4 °F - 64.4 °F 73% 30.08 in 10.0 mi North - - N/A   Clear
9:55 AM 77.0 °F - 62.6 °F 61% 30.08 in 10.0 mi North - - N/A   Clear
10:15 AM 78.8 °F - 62.6 °F 57% 30.08 in 10.0 mi North - - N/A   Clear
10:35 AM 78.8 °F - 62.6 °F 57% 30.08 in 10.0 mi North 3.5 mph - N/A   Clear
10:55 AM 82.4 °F 82.9 °F 60.8 °F 48% 30.08 in 10.0 mi Calm Calm - N/A   Clear
11:15 AM 82.4 °F 82.9 °F 60.8 °F 48% 30.08 in 10.0 mi NE 3.5 mph - N/A   Clear
11:35 AM 86.0 °F 84.2 °F 53.6 °F 33% 30.07 in 10.0 mi Calm Calm - N/A   Clear
11:55 AM 87.8 °F 85.7 °F 53.6 °F 31% 30.07 in 10.0 mi SW 4.6 mph - N/A   Clear
12:15 PM 87.8 °F 85.7 °F 53.6 °F 31% 30.07 in 10.0 mi South 4.6 mph - N/A   Clear
12:35 PM 89.6 °F 87.3 °F 53.6 °F 29% 30.06 in 10.0 mi SW 6.9 mph - N/A   Clear
12:55 PM 89.6 °F 87.3 °F 53.6 °F 29% 30.05 in 10.0 mi South 5.8 mph - N/A   Clear
1:15 PM 89.6 °F 87.3 °F 53.6 °F 29% 30.04 in 10.0 mi South 9.2 mph - N/A   Clear
1:35 PM 91.4 °F 89.1 °F 53.6 °F 28% 30.04 in 10.0 mi SSE 10.4 mph 18.4 mph N/A   Clear
1:55 PM 93.2 °F 90.8 °F 53.6 °F 26% 30.03 in 10.0 mi SSE 11.5 mph 20.7 mph N/A   Clear
2:15 PM 93.2 °F 90.8 °F 53.6 °F 26% 30.03 in 10.0 mi South 10.4 mph 18.4 mph N/A   Clear
2:35 PM 93.2 °F 90.8 °F 53.6 °F 26% 30.02 in 10.0 mi SE 15.0 mph 20.7 mph N/A   Clear
2:55 PM 93.2 °F 90.8 °F 53.6 °F 26% 30.02 in 10.0 mi SE 11.5 mph 19.6 mph N/A   Clear
3:15 PM 93.2 °F 90.8 °F 53.6 °F 26% 30.01 in 10.0 mi SSE 8.1 mph 12.7 mph N/A   Clear
3:35 PM 93.2 °F - 51.8 °F 24% 30.01 in 10.0 mi SSE 13.8 mph 20.7 mph N/A   Clear
3:55 PM 93.2 °F 90.8 °F 53.6 °F 26% 29.99 in 10.0 mi South 12.7 mph 23.0 mph N/A   Clear
4:15 PM 93.2 °F 90.8 °F 53.6 °F 26% 29.99 in 10.0 mi SSE 12.7 mph 18.4 mph N/A   Clear
4:35 PM 93.2 °F 90.8 °F 53.6 °F 26% 29.99 in 10.0 mi South 11.5 mph 21.9 mph N/A   Clear
4:55 PM 93.2 °F 90.8 °F 53.6 °F 26% 29.99 in 10.0 mi South 11.5 mph 18.4 mph N/A   Clear
5:15 PM 93.2 °F 90.8 °F 53.6 °F 26% 29.98 in 10.0 mi South 11.5 mph 23.0 mph N/A   Clear
5:35 PM 91.4 °F - 51.8 °F 26% 29.98 in 10.0 mi South 13.8 mph 19.6 mph N/A   Clear
5:55 PM 91.4 °F - 51.8 °F 26% 29.98 in 10.0 mi South 16.1 mph 20.7 mph N/A   Clear
6:15 PM 89.6 °F - 51.8 °F 27% 29.98 in 10.0 mi South 12.7 mph - N/A   Clear
6:35 PM 87.8 °F - 51.8 °F 29% 29.98 in 10.0 mi South 9.2 mph - N/A   Clear
6:55 PM - - - N/A% 29.97 in 10.0 mi SSE 13.8 mph - N/A   Clear
7:15 PM - - - N/A% 29.97 in 10.0 mi SSE 11.5 mph - N/A   Clear
7:35 PM - - - N/A% 29.97 in 10.0 mi South 12.7 mph - N/A   Clear
7:55 PM - - - N/A% 29.99 in 10.0 mi SSE 12.7 mph - N/A   Clear
8:15 PM - - - N/A% 29.99 in 10.0 mi SSE 11.5 mph 18.4 mph N/A   Clear
8:35 PM - - - N/A% 30.00 in 10.0 mi South 12.7 mph 18.4 mph N/A   Clear
8:55 PM - - - N/A% 30.00 in 10.0 mi South 12.7 mph - N/A   Clear
9:15 PM - - - N/A% 30.00 in 10.0 mi South 15.0 mph 20.7 mph N/A   Clear
9:35 PM 82.4 °F 82.5 °F 59.0 °F 45% 30.01 in 10.0 mi North - - N/A   Clear
9:55 PM 80.6 °F 81.1 °F 59.0 °F 48% 30.02 in 10.0 mi South 18.4 mph 28.8 mph N/A   Clear
10:15 PM 80.6 °F 80.8 °F 57.2 °F 45% 30.02 in 10.0 mi South 13.8 mph 20.7 mph N/A   Clear
10:35 PM 80.6 °F 80.3 °F 53.6 °F 39% 30.03 in 10.0 mi South 13.8 mph - N/A   Clear
10:55 PM 80.6 °F - 50.0 °F 34% 30.03 in 10.0 mi South 16.1 mph 25.3 mph N/A   Clear
11:15 PM 80.6 °F - 50.0 °F 34% 30.03 in 10.0 mi South 13.8 mph 25.3 mph N/A   Clear
11:35 PM 80.6 °F - 48.2 °F 32% 30.04 in 10.0 mi South 16.1 mph - N/A   Clear
11:55 PM 80.6 °F - 48.2 °F 32% 30.03 in 10.0 mi SSW 12.7 mph 18.4 mph N/A   Clear